Year,Month,Day,Hour,Minute,Value (Times are PST for temperature in C)
2012,06,22,00,00,14.40
2012,06,22,00,01,14.40
2012,06,22,00,02,14.30
2012,06,22,00,03,14.30
2012,06,22,00,04,14.30
2012,06,22,00,05,14.30
2012,06,22,00,06,14.30
2012,06,22,00,07,14.30
2012,06,22,00,08,14.30
2012,06,22,00,09,14.30
2012,06,22,00,10,14.20
2012,06,22,00,11,14.20
2012,06,22,00,12,14.20
2012,06,22,00,13,14.20
2012,06,22,00,14,14.20
2012,06,22,00,15,14.20
2012,06,22,00,16,14.20
2012,06,22,00,17,14.10
2012,06,22,00,18,14.10
2012,06,22,00,19,14.10
2012,06,22,00,20,14.10
2012,06,22,00,21,14.10
2012,06,22,00,22,14.10
2012,06,22,00,23,14.10
2012,06,22,00,24,14.10
2012,06,22,00,25,14.00
2012,06,22,00,26,14.00
2012,06,22,00,27,14.00
2012,06,22,00,28,14.00
2012,06,22,00,29,14.00
2012,06,22,00,30,14.00
2012,06,22,00,31,14.00
2012,06,22,00,32,13.90
2012,06,22,00,33,13.90
2012,06,22,00,34,13.90
2012,06,22,00,35,13.90
2012,06,22,00,36,13.90
2012,06,22,00,37,13.90
2012,06,22,00,38,13.90
2012,06,22,00,39,13.90
2012,06,22,00,40,13.90
2012,06,22,00,41,13.90
2012,06,22,00,42,13.80
2012,06,22,00,43,13.80
2012,06,22,00,44,13.80
2012,06,22,00,45,13.80
2012,06,22,00,46,13.80
2012,06,22,00,47,13.80
2012,06,22,00,48,13.80
2012,06,22,00,49,13.70
2012,06,22,00,50,13.70
2012,06,22,00,51,13.70
2012,06,22,00,52,13.70
2012,06,22,00,53,13.70
2012,06,22,00,54,13.70
2012,06,22,00,55,13.70
2012,06,22,00,56,13.60
2012,06,22,00,57,13.60
2012,06,22,00,58,13.60
2012,06,22,00,59,13.60
2012,06,22,01,00,13.60
2012,06,22,01,01,13.60
2012,06,22,01,02,13.60
2012,06,22,01,03,13.50
2012,06,22,01,04,13.50
2012,06,22,01,05,13.50
2012,06,22,01,06,13.50
2012,06,22,01,07,13.40
2012,06,22,01,08,13.40
2012,06,22,01,09,13.40
2012,06,22,01,10,13.40
2012,06,22,01,11,13.40
2012,06,22,01,12,13.40
2012,06,22,01,13,13.40
2012,06,22,01,14,13.40
2012,06,22,01,15,13.30
2012,06,22,01,16,13.30
2012,06,22,01,17,13.30
2012,06,22,01,18,13.30
2012,06,22,01,19,13.30
2012,06,22,01,20,13.30
2012,06,22,01,21,13.30
2012,06,22,01,22,13.30
2012,06,22,01,23,13.20
2012,06,22,01,24,13.20
2012,06,22,01,25,13.20
2012,06,22,01,26,13.20
2012,06,22,01,27,13.20
2012,06,22,01,28,13.20
2012,06,22,01,29,13.20
2012,06,22,01,30,13.20
2012,06,22,01,31,13.20
2012,06,22,01,32,13.20
2012,06,22,01,33,13.10
2012,06,22,01,34,13.10
2012,06,22,01,35,13.10
2012,06,22,01,36,13.10
2012,06,22,01,37,13.10
2012,06,22,01,38,13.10
2012,06,22,01,39,13.10
2012,06,22,01,40,13.10
2012,06,22,01,41,13.10
2012,06,22,01,42,13.10
2012,06,22,01,43,13.10
2012,06,22,01,44,13.10
2012,06,22,01,45,13.10
2012,06,22,01,46,13.00
2012,06,22,01,47,13.00
2012,06,22,01,48,13.00
2012,06,22,01,49,13.00
2012,06,22,01,50,13.00
2012,06,22,01,51,13.00
2012,06,22,01,52,13.00
2012,06,22,01,53,13.00
2012,06,22,01,54,13.00
2012,06,22,01,55,13.00
2012,06,22,01,56,12.90
2012,06,22,01,57,12.90
2012,06,22,01,58,12.90
2012,06,22,01,59,12.90
2012,06,22,02,00,12.90
2012,06,22,02,01,12.90
2012,06,22,02,02,12.90
2012,06,22,02,03,12.90
2012,06,22,02,04,12.90
2012,06,22,02,05,12.90
2012,06,22,02,06,12.90
2012,06,22,02,07,12.90
2012,06,22,02,08,12.90
2012,06,22,02,09,12.90
2012,06,22,02,10,12.80
2012,06,22,02,11,12.80
2012,06,22,02,12,12.80
2012,06,22,02,13,12.80
2012,06,22,02,14,12.80
2012,06,22,02,15,12.80
2012,06,22,02,16,12.80
2012,06,22,02,17,12.80
2012,06,22,02,18,12.80
2012,06,22,02,19,12.80
2012,06,22,02,20,12.80
2012,06,22,02,21,12.80
2012,06,22,02,22,12.80
2012,06,22,02,23,12.80
2012,06,22,02,24,12.80
2012,06,22,02,25,12.70
2012,06,22,02,26,12.70
2012,06,22,02,27,12.70
2012,06,22,02,28,12.70
2012,06,22,02,29,12.70
2012,06,22,02,30,12.70
2012,06,22,02,31,12.70
2012,06,22,02,32,12.60
2012,06,22,02,33,12.60
2012,06,22,02,34,12.60
2012,06,22,02,35,12.60
2012,06,22,02,36,12.60
2012,06,22,02,37,12.60
2012,06,22,02,38,12.60
2012,06,22,02,39,12.50
2012,06,22,02,40,12.50
2012,06,22,02,41,12.50
2012,06,22,02,42,12.50
2012,06,22,02,43,12.50
2012,06,22,02,44,12.40
2012,06,22,02,45,12.40
2012,06,22,02,46,12.40
2012,06,22,02,47,12.40
2012,06,22,02,48,12.40
2012,06,22,02,49,12.40
2012,06,22,02,50,12.40
2012,06,22,02,51,12.40
2012,06,22,02,52,12.30
2012,06,22,02,53,12.30
2012,06,22,02,54,12.30
2012,06,22,02,55,12.30
2012,06,22,02,56,12.30
2012,06,22,02,57,12.30
2012,06,22,02,58,12.30
2012,06,22,02,59,12.20
2012,06,22,03,00,12.20
2012,06,22,03,01,12.20
2012,06,22,03,02,12.20
2012,06,22,03,03,12.20
2012,06,22,03,04,12.20
2012,06,22,03,05,12.20
2012,06,22,03,06,12.10
2012,06,22,03,07,12.10
2012,06,22,03,08,12.10
2012,06,22,03,09,12.10
2012,06,22,03,10,12.10
2012,06,22,03,11,12.10
2012,06,22,03,12,12.10
2012,06,22,03,13,12.00
2012,06,22,03,14,12.00
2012,06,22,03,15,12.00
2012,06,22,03,16,12.00
2012,06,22,03,17,12.00
2012,06,22,03,18,11.90
2012,06,22,03,19,11.90
2012,06,22,03,20,11.90
2012,06,22,03,21,11.90
2012,06,22,03,22,11.90
2012,06,22,03,23,11.90
2012,06,22,03,24,11.90
2012,06,22,03,25,11.90
2012,06,22,03,26,11.80
2012,06,22,03,27,11.80
2012,06,22,03,28,11.80
2012,06,22,03,29,11.80
2012,06,22,03,30,11.80
2012,06,22,03,31,11.80
2012,06,22,03,32,11.80
2012,06,22,03,33,11.70
2012,06,22,03,34,11.70
2012,06,22,03,35,11.70
2012,06,22,03,36,11.70
2012,06,22,03,37,11.70
2012,06,22,03,38,11.70
2012,06,22,03,39,11.70
2012,06,22,03,40,11.60
2012,06,22,03,41,11.60
2012,06,22,03,42,11.60
2012,06,22,03,43,11.60
2012,06,22,03,44,11.60
2012,06,22,03,45,11.60
2012,06,22,03,46,11.60
2012,06,22,03,47,11.60
2012,06,22,03,48,11.50
2012,06,22,03,49,11.50
2012,06,22,03,50,11.50
2012,06,22,03,51,11.50
2012,06,22,03,52,11.50
2012,06,22,03,53,11.40
2012,06,22,03,54,11.40
2012,06,22,03,55,11.40
2012,06,22,03,56,11.40
2012,06,22,03,57,11.40
2012,06,22,03,58,11.40
2012,06,22,03,59,11.40
2012,06,22,04,00,11.40
2012,06,22,04,01,11.30
2012,06,22,04,02,11.30
2012,06,22,04,03,11.30
2012,06,22,04,04,11.30
2012,06,22,04,05,11.30
2012,06,22,04,06,11.30
2012,06,22,04,07,11.30
2012,06,22,04,08,11.30
2012,06,22,04,09,11.30
2012,06,22,04,10,11.30
2012,06,22,04,11,11.30
2012,06,22,04,12,11.30
2012,06,22,04,13,11.20
2012,06,22,04,14,11.20
2012,06,22,04,15,11.20
2012,06,22,04,16,11.20
2012,06,22,04,17,11.20
2012,06,22,04,18,11.20
2012,06,22,04,19,11.20
2012,06,22,04,20,11.20
2012,06,22,04,21,11.20
2012,06,22,04,22,11.20
2012,06,22,04,23,11.20
2012,06,22,04,24,11.20
2012,06,22,04,25,11.20
2012,06,22,04,26,11.20
2012,06,22,04,27,11.20
2012,06,22,04,28,11.10
2012,06,22,04,29,11.10
2012,06,22,04,30,11.10
2012,06,22,04,31,11.10
2012,06,22,04,32,11.10
2012,06,22,04,33,11.10
2012,06,22,04,34,11.10
2012,06,22,04,35,11.10
2012,06,22,04,36,11.00
2012,06,22,04,37,11.00
2012,06,22,04,38,11.00
2012,06,22,04,39,11.00
2012,06,22,04,40,11.00
2012,06,22,04,41,11.00
2012,06,22,04,42,11.00
2012,06,22,04,43,11.00
2012,06,22,04,44,10.90
2012,06,22,04,45,10.90
2012,06,22,04,46,10.90
2012,06,22,04,47,10.90
2012,06,22,04,48,10.90
2012,06,22,04,49,10.90
2012,06,22,04,50,10.90
2012,06,22,04,51,10.90
2012,06,22,04,52,10.90
2012,06,22,04,53,10.90
2012,06,22,04,54,10.90
2012,06,22,04,55,10.90
2012,06,22,04,56,10.90
2012,06,22,04,57,10.90
2012,06,22,04,58,10.90
2012,06,22,04,59,10.90
2012,06,22,05,00,10.80
2012,06,22,05,01,10.80
2012,06,22,05,02,10.80
2012,06,22,05,03,10.80
2012,06,22,05,04,10.80
2012,06,22,05,05,10.80
2012,06,22,05,06,10.80
2012,06,22,05,07,10.80
2012,06,22,05,08,10.80
2012,06,22,05,09,10.80
2012,06,22,05,10,10.80
2012,06,22,05,11,10.80
2012,06,22,05,12,10.80
2012,06,22,05,13,10.80
2012,06,22,05,14,10.80
2012,06,22,05,15,10.80
2012,06,22,05,16,10.80
2012,06,22,05,17,10.70
2012,06,22,05,18,10.70
2012,06,22,05,19,10.70
2012,06,22,05,20,10.70
2012,06,22,05,21,10.70
2012,06,22,05,22,10.70
2012,06,22,05,23,10.70
2012,06,22,05,24,10.70
2012,06,22,05,25,10.70
2012,06,22,05,26,10.70
2012,06,22,05,27,10.70
2012,06,22,05,28,10.70
2012,06,22,05,29,10.70
2012,06,22,05,30,10.70
2012,06,22,05,31,10.70
2012,06,22,05,32,10.70
2012,06,22,05,33,10.70
2012,06,22,05,34,10.70
2012,06,22,05,35,10.70
2012,06,22,05,36,10.70
2012,06,22,05,37,10.70
2012,06,22,05,38,10.70
2012,06,22,05,39,10.70
2012,06,22,05,40,10.70
2012,06,22,05,41,10.70
2012,06,22,05,42,10.70
2012,06,22,05,43,10.70
2012,06,22,05,44,10.70
2012,06,22,05,45,10.70
2012,06,22,05,46,10.70
2012,06,22,05,47,10.70
2012,06,22,05,48,10.70
2012,06,22,05,49,10.70
2012,06,22,05,50,10.70
2012,06,22,05,51,10.70
2012,06,22,05,52,10.70
2012,06,22,05,53,10.70
2012,06,22,05,54,10.70
2012,06,22,05,55,10.80
2012,06,22,05,56,10.80
2012,06,22,05,57,10.80
2012,06,22,05,58,10.80
2012,06,22,05,59,10.80
2012,06,22,06,00,10.80
2012,06,22,06,01,10.80
2012,06,22,06,02,10.80
2012,06,22,06,03,10.80
2012,06,22,06,04,10.80
2012,06,22,06,05,10.80
2012,06,22,06,06,10.80
2012,06,22,06,07,10.90
2012,06,22,06,08,10.90
2012,06,22,06,09,10.90
2012,06,22,06,10,10.90
2012,06,22,06,11,10.90
2012,06,22,06,12,10.90
2012,06,22,06,13,11.00
2012,06,22,06,14,11.00
2012,06,22,06,15,11.00
2012,06,22,06,16,11.00
2012,06,22,06,17,11.10
2012,06,22,06,18,11.10
2012,06,22,06,19,11.10
2012,06,22,06,20,11.10
2012,06,22,06,21,11.10
2012,06,22,06,22,11.20
2012,06,22,06,23,11.20
2012,06,22,06,24,11.20
2012,06,22,06,25,11.20
2012,06,22,06,26,11.30
2012,06,22,06,27,11.30
2012,06,22,06,28,11.30
2012,06,22,06,29,11.30
2012,06,22,06,30,11.30
2012,06,22,06,31,11.40
2012,06,22,06,32,11.40
2012,06,22,06,33,11.40
2012,06,22,06,34,11.40
2012,06,22,06,35,11.50
2012,06,22,06,36,11.50
2012,06,22,06,37,11.50
2012,06,22,06,38,11.60
2012,06,22,06,39,11.60
2012,06,22,06,40,11.60
2012,06,22,06,41,11.70
2012,06,22,06,42,11.70
2012,06,22,06,43,11.70
2012,06,22,06,44,11.70
2012,06,22,06,45,11.80
2012,06,22,06,46,11.80
2012,06,22,06,47,11.80
2012,06,22,06,48,11.90
2012,06,22,06,49,11.90
2012,06,22,06,50,11.90
2012,06,22,06,51,12.00
2012,06,22,06,52,12.00
2012,06,22,06,53,12.00
2012,06,22,06,54,12.00
2012,06,22,06,55,12.00
2012,06,22,06,56,12.10
2012,06,22,06,57,12.10
2012,06,22,06,58,12.10
2012,06,22,06,59,12.10
2012,06,22,07,00,12.10
2012,06,22,07,01,12.20
2012,06,22,07,02,12.20
2012,06,22,07,03,12.20
2012,06,22,07,04,12.20
2012,06,22,07,05,12.30
2012,06,22,07,06,12.30
2012,06,22,07,07,12.30
2012,06,22,07,08,12.30
2012,06,22,07,09,12.30
2012,06,22,07,10,12.30
2012,06,22,07,11,12.40
2012,06,22,07,12,12.40
2012,06,22,07,13,12.40
2012,06,22,07,14,12.40
2012,06,22,07,15,12.40
2012,06,22,07,16,12.50
2012,06,22,07,17,12.50
2012,06,22,07,18,12.50
2012,06,22,07,19,12.50
2012,06,22,07,20,12.50
2012,06,22,07,21,12.50
2012,06,22,07,22,12.60
2012,06,22,07,23,12.60
2012,06,22,07,24,12.60
2012,06,22,07,25,12.60
2012,06,22,07,26,12.70
2012,06,22,07,27,12.70
2012,06,22,07,28,12.70
2012,06,22,07,29,12.80
2012,06,22,07,30,12.80
2012,06,22,07,31,12.90
2012,06,22,07,32,13.00
2012,06,22,07,33,13.00
2012,06,22,07,34,13.10
2012,06,22,07,35,13.20
2012,06,22,07,36,13.30
2012,06,22,07,37,13.40
2012,06,22,07,38,13.50
2012,06,22,07,39,13.50
2012,06,22,07,40,13.60
2012,06,22,07,41,13.60
2012,06,22,07,42,13.70
2012,06,22,07,43,13.80
2012,06,22,07,44,13.80
2012,06,22,07,45,13.90
2012,06,22,07,46,14.00
2012,06,22,07,47,14.10
2012,06,22,07,48,14.20
2012,06,22,07,49,14.20
2012,06,22,07,50,14.30
2012,06,22,07,51,14.30
2012,06,22,07,52,14.40
2012,06,22,07,53,14.40
2012,06,22,07,54,14.50
2012,06,22,07,55,14.60
2012,06,22,07,56,14.70
2012,06,22,07,57,14.70
2012,06,22,07,58,14.80
2012,06,22,07,59,14.80
2012,06,22,08,00,14.80
2012,06,22,08,01,14.90
2012,06,22,08,02,15.00
2012,06,22,08,03,15.00
2012,06,22,08,04,15.00
2012,06,22,08,05,15.00
2012,06,22,08,06,15.10
2012,06,22,08,07,15.20
2012,06,22,08,08,15.30
2012,06,22,08,09,15.30
2012,06,22,08,10,15.30
2012,06,22,08,11,15.40
2012,06,22,08,12,15.40
2012,06,22,08,13,15.50
2012,06,22,08,14,15.50
2012,06,22,08,15,15.60
2012,06,22,08,16,15.70
2012,06,22,08,17,15.80
2012,06,22,08,18,15.80
2012,06,22,08,19,15.90
2012,06,22,08,20,16.00
2012,06,22,08,21,16.00
2012,06,22,08,22,16.10
2012,06,22,08,23,16.20
2012,06,22,08,24,16.20
2012,06,22,08,25,16.30
2012,06,22,08,26,16.30
2012,06,22,08,27,16.40
2012,06,22,08,28,16.50
2012,06,22,08,29,16.50
2012,06,22,08,30,16.60
2012,06,22,08,31,16.70
2012,06,22,08,32,16.70
2012,06,22,08,33,16.70
2012,06,22,08,34,16.80
2012,06,22,08,35,16.80
2012,06,22,08,36,16.80
2012,06,22,08,37,16.90
2012,06,22,08,38,16.90
2012,06,22,08,39,16.90
2012,06,22,08,40,17.00
2012,06,22,08,41,17.00
2012,06,22,08,42,17.10
2012,06,22,08,43,17.10
2012,06,22,08,44,17.10
2012,06,22,08,45,17.10
2012,06,22,08,46,17.10
2012,06,22,08,47,17.10
2012,06,22,08,48,17.10
2012,06,22,08,49,17.10
2012,06,22,08,50,17.10
2012,06,22,08,51,17.10
2012,06,22,08,52,17.00
2012,06,22,08,53,17.00
2012,06,22,08,54,17.00
2012,06,22,08,55,16.90
2012,06,22,08,56,16.90
2012,06,22,08,57,16.90
2012,06,22,08,58,16.90
2012,06,22,08,59,16.90
2012,06,22,09,00,16.80
2012,06,22,09,01,16.80
2012,06,22,09,02,16.80
2012,06,22,09,03,16.80
2012,06,22,09,04,16.70
2012,06,22,09,05,16.70
2012,06,22,09,06,16.70
2012,06,22,09,07,16.70
2012,06,22,09,08,16.70
2012,06,22,09,09,16.70
2012,06,22,09,10,16.70
2012,06,22,09,11,16.70
2012,06,22,09,12,16.70
2012,06,22,09,13,16.70
2012,06,22,09,14,16.70
2012,06,22,09,15,16.70
2012,06,22,09,16,16.70
2012,06,22,09,17,16.70
2012,06,22,09,18,16.70
2012,06,22,09,19,16.70
2012,06,22,09,20,16.70
2012,06,22,09,21,16.70
2012,06,22,09,22,16.70
2012,06,22,09,23,16.70
2012,06,22,09,24,16.70
2012,06,22,09,25,16.70
2012,06,22,09,26,16.70
2012,06,22,09,27,16.70
2012,06,22,09,28,16.70
2012,06,22,09,29,16.80
2012,06,22,09,30,16.80
2012,06,22,09,31,16.80
2012,06,22,09,32,16.80
2012,06,22,09,33,16.70
2012,06,22,09,34,16.70
2012,06,22,09,35,16.70
2012,06,22,09,36,16.70
2012,06,22,09,37,16.70
2012,06,22,09,38,16.70
2012,06,22,09,39,16.70
2012,06,22,09,40,16.70
2012,06,22,09,41,16.60
2012,06,22,09,42,16.60
2012,06,22,09,43,16.60
2012,06,22,09,44,16.60
2012,06,22,09,45,16.60
2012,06,22,09,46,16.60
2012,06,22,09,47,16.60
2012,06,22,09,48,16.60
2012,06,22,09,49,16.60
2012,06,22,09,50,16.60
2012,06,22,09,51,16.60
2012,06,22,09,52,16.50
2012,06,22,09,53,16.50
2012,06,22,09,54,16.50
2012,06,22,09,55,16.50
2012,06,22,09,56,16.50
2012,06,22,09,57,16.50
2012,06,22,09,58,16.50
2012,06,22,09,59,16.50
2012,06,22,10,00,16.50
2012,06,22,10,01,16.50
2012,06,22,10,02,16.40
2012,06,22,10,03,16.40
2012,06,22,10,04,16.40
2012,06,22,10,05,16.40
2012,06,22,10,06,16.40
2012,06,22,10,07,16.40
2012,06,22,10,08,16.40
2012,06,22,10,09,16.40
2012,06,22,10,10,16.40
2012,06,22,10,11,16.40
2012,06,22,10,12,16.40
2012,06,22,10,13,16.40
2012,06,22,10,14,16.40
2012,06,22,10,15,16.40
2012,06,22,10,16,16.40
2012,06,22,10,17,16.40
2012,06,22,10,18,16.40
2012,06,22,10,19,16.40
2012,06,22,10,20,16.40
2012,06,22,10,21,16.40
2012,06,22,10,22,16.40
2012,06,22,10,23,16.40
2012,06,22,10,24,16.40
2012,06,22,10,25,16.40
2012,06,22,10,26,16.50
2012,06,22,10,27,16.50
2012,06,22,10,28,16.50
2012,06,22,10,29,16.50
2012,06,22,10,30,16.50
2012,06,22,10,31,16.50
2012,06,22,10,32,16.50
2012,06,22,10,33,16.50
2012,06,22,10,34,16.60
2012,06,22,10,35,16.60
2012,06,22,10,36,16.60
2012,06,22,10,37,16.60
2012,06,22,10,38,16.50
2012,06,22,10,39,16.50
2012,06,22,10,40,16.40
2012,06,22,10,41,16.40
2012,06,22,10,42,16.40
2012,06,22,10,43,16.30
2012,06,22,10,44,16.30
2012,06,22,10,45,16.30
2012,06,22,10,46,16.20
2012,06,22,10,47,16.20
2012,06,22,10,48,16.10
2012,06,22,10,49,16.10
2012,06,22,10,50,16.00
2012,06,22,10,51,16.00
2012,06,22,10,52,15.90
2012,06,22,10,53,15.90
2012,06,22,10,54,15.90
2012,06,22,10,55,15.80
2012,06,22,10,56,15.80
2012,06,22,10,57,15.70
2012,06,22,10,58,15.60
2012,06,22,10,59,15.60
2012,06,22,11,00,15.50
2012,06,22,11,01,15.40
2012,06,22,11,02,15.40
2012,06,22,11,03,15.30
2012,06,22,11,04,15.30
2012,06,22,11,05,15.20
2012,06,22,11,06,15.20
2012,06,22,11,07,15.10
2012,06,22,11,08,15.00
2012,06,22,11,09,15.00
2012,06,22,11,10,15.00
2012,06,22,11,11,15.00
2012,06,22,11,12,15.00
2012,06,22,11,13,15.00
2012,06,22,11,14,14.90
2012,06,22,11,15,14.80
2012,06,22,11,16,14.80
2012,06,22,11,17,14.80
2012,06,22,11,18,14.80
2012,06,22,11,19,14.70
2012,06,22,11,20,14.70
2012,06,22,11,21,14.60
2012,06,22,11,22,14.60
2012,06,22,11,23,14.60
2012,06,22,11,24,14.60
2012,06,22,11,25,14.60
2012,06,22,11,26,14.60
2012,06,22,11,27,14.60
2012,06,22,11,28,14.60
2012,06,22,11,29,14.60
2012,06,22,11,30,14.50
2012,06,22,11,31,14.50
2012,06,22,11,32,14.50
2012,06,22,11,33,14.40
2012,06,22,11,34,14.40
2012,06,22,11,35,14.40
2012,06,22,11,36,14.40
2012,06,22,11,37,14.40
2012,06,22,11,38,14.40
2012,06,22,11,39,14.40
2012,06,22,11,40,14.30
2012,06,22,11,41,14.30
2012,06,22,11,42,14.30
2012,06,22,11,43,14.30
2012,06,22,11,44,14.30
2012,06,22,11,45,14.30
2012,06,22,11,46,14.30
2012,06,22,11,47,14.30
2012,06,22,11,48,14.20
2012,06,22,11,49,14.20
2012,06,22,11,50,14.20
2012,06,22,11,51,14.20
2012,06,22,11,52,14.20
2012,06,22,11,53,14.20
2012,06,22,11,54,14.20
2012,06,22,11,55,14.10
2012,06,22,11,56,14.10
2012,06,22,11,57,14.10
2012,06,22,11,58,14.10
2012,06,22,11,59,14.10
2012,06,22,12,00,14.10
2012,06,22,12,01,14.10
2012,06,22,12,02,14.10
2012,06,22,12,03,14.10
2012,06,22,12,04,14.00
2012,06,22,12,05,14.00
2012,06,22,12,06,14.00
2012,06,22,12,07,14.00
2012,06,22,12,08,14.00
2012,06,22,12,09,13.90
2012,06,22,12,10,13.90
2012,06,22,12,11,13.90
2012,06,22,12,12,13.90
2012,06,22,12,13,13.90
2012,06,22,12,14,13.90
2012,06,22,12,15,13.90
2012,06,22,12,16,13.90
2012,06,22,12,17,13.90
2012,06,22,12,18,13.90
2012,06,22,12,19,13.80
2012,06,22,12,20,13.80
2012,06,22,12,21,13.80
2012,06,22,12,22,13.80
2012,06,22,12,23,13.80
2012,06,22,12,24,13.70
2012,06,22,12,25,13.70
2012,06,22,12,26,13.70
2012,06,22,12,27,13.70
2012,06,22,12,28,13.70
2012,06,22,12,29,13.60
2012,06,22,12,30,13.60
2012,06,22,12,31,13.50
2012,06,22,12,32,13.40
2012,06,22,12,33,13.30
2012,06,22,12,34,13.30
2012,06,22,12,35,13.20
2012,06,22,12,36,13.20
2012,06,22,12,37,13.10
2012,06,22,12,38,13.10
2012,06,22,12,39,13.10
2012,06,22,12,40,13.00
2012,06,22,12,41,13.00
2012,06,22,12,42,13.00
2012,06,22,12,43,12.90
2012,06,22,12,44,12.90
2012,06,22,12,45,12.90
2012,06,22,12,46,12.90
2012,06,22,12,47,12.90
2012,06,22,12,48,12.90
2012,06,22,12,49,12.80
2012,06,22,12,50,12.80
2012,06,22,12,51,12.80
2012,06,22,12,52,12.80
2012,06,22,12,53,12.80
2012,06,22,12,54,12.80
2012,06,22,12,55,12.80
2012,06,22,12,56,12.80
2012,06,22,12,57,12.70
2012,06,22,12,58,12.70
2012,06,22,12,59,12.70
2012,06,22,13,00,12.60
2012,06,22,13,01,12.60
2012,06,22,13,02,12.60
2012,06,22,13,03,12.60
2012,06,22,13,04,12.60
2012,06,22,13,05,12.50
2012,06,22,13,06,12.50
2012,06,22,13,07,12.40
2012,06,22,13,08,12.40
2012,06,22,13,09,12.40
2012,06,22,13,10,12.40
2012,06,22,13,11,12.30
2012,06,22,13,12,12.30
2012,06,22,13,13,12.30
2012,06,22,13,14,12.20
2012,06,22,13,15,12.20
2012,06,22,13,16,12.20
2012,06,22,13,17,12.20
2012,06,22,13,18,12.20
2012,06,22,13,19,12.10
2012,06,22,13,20,12.10
2012,06,22,13,21,12.10
2012,06,22,13,22,12.10
2012,06,22,13,23,12.10
2012,06,22,13,24,12.10
2012,06,22,13,25,12.10
2012,06,22,13,26,12.10
2012,06,22,13,27,12.10
2012,06,22,13,28,12.10
2012,06,22,13,29,12.10
2012,06,22,13,30,12.10
2012,06,22,13,31,12.10
2012,06,22,13,32,12.10
2012,06,22,13,33,12.10
2012,06,22,13,34,12.10
2012,06,22,13,35,12.10
2012,06,22,13,36,12.10
2012,06,22,13,37,12.10
2012,06,22,13,38,12.10
2012,06,22,13,39,12.10
2012,06,22,13,40,12.20
2012,06,22,13,41,12.20
2012,06,22,13,42,12.20
2012,06,22,13,43,12.10
2012,06,22,13,44,12.10
2012,06,22,13,45,12.10
2012,06,22,13,46,12.10
2012,06,22,13,47,12.10
2012,06,22,13,48,12.10
2012,06,22,13,49,12.00
2012,06,22,13,50,12.00
2012,06,22,13,51,12.00
2012,06,22,13,52,11.90
2012,06,22,13,53,11.90
2012,06,22,13,54,11.90
2012,06,22,13,55,11.80
2012,06,22,13,56,11.80
2012,06,22,13,57,11.80
2012,06,22,13,58,11.70
2012,06,22,13,59,11.70
2012,06,22,14,00,11.70
2012,06,22,14,01,11.60
2012,06,22,14,02,11.60
2012,06,22,14,03,11.60
2012,06,22,14,04,11.60
2012,06,22,14,05,11.50
2012,06,22,14,06,11.50
2012,06,22,14,07,11.50
2012,06,22,14,08,11.40
2012,06,22,14,09,11.40
2012,06,22,14,10,11.40
2012,06,22,14,11,11.40
2012,06,22,14,12,11.40
2012,06,22,14,13,11.40
2012,06,22,14,14,11.40
2012,06,22,14,15,11.40
2012,06,22,14,16,11.40
2012,06,22,14,17,11.40
2012,06,22,14,18,11.40
2012,06,22,14,19,11.40
2012,06,22,14,20,11.40
2012,06,22,14,21,11.40
2012,06,22,14,22,11.40
2012,06,22,14,23,11.40
2012,06,22,14,24,11.40
2012,06,22,14,25,11.40
2012,06,22,14,26,11.40
2012,06,22,14,27,11.40
2012,06,22,14,28,11.40
2012,06,22,14,29,11.40
2012,06,22,14,30,11.40
2012,06,22,14,31,11.40
2012,06,22,14,32,11.40
2012,06,22,14,33,11.40
2012,06,22,14,34,11.40
2012,06,22,14,35,11.40
2012,06,22,14,36,11.40
2012,06,22,14,37,11.40
2012,06,22,14,38,11.40
2012,06,22,14,39,11.40
2012,06,22,14,40,11.40
2012,06,22,14,41,11.30
2012,06,22,14,42,11.30
2012,06,22,14,43,11.30
2012,06,22,14,44,11.30
2012,06,22,14,45,11.30
2012,06,22,14,46,11.30
2012,06,22,14,47,11.30
2012,06,22,14,48,11.30
2012,06,22,14,49,11.30
2012,06,22,14,50,11.40
2012,06,22,14,51,11.40
2012,06,22,14,52,11.40
2012,06,22,14,53,11.40
2012,06,22,14,54,11.30
2012,06,22,14,55,11.30
2012,06,22,14,56,11.30
2012,06,22,14,57,11.30
2012,06,22,14,58,11.30
2012,06,22,14,59,11.30
2012,06,22,15,00,11.30
2012,06,22,15,01,11.30
2012,06,22,15,02,11.30
2012,06,22,15,03,11.30
2012,06,22,15,04,11.30
2012,06,22,15,05,11.30
2012,06,22,15,06,11.30
2012,06,22,15,07,11.30
2012,06,22,15,08,11.30
2012,06,22,15,09,11.30
2012,06,22,15,10,11.30
2012,06,22,15,11,11.30
2012,06,22,15,12,11.30
2012,06,22,15,13,11.30
2012,06,22,15,14,11.30
2012,06,22,15,15,11.30
2012,06,22,15,16,11.30
2012,06,22,15,17,11.30
2012,06,22,15,18,11.30
2012,06,22,15,19,11.30
2012,06,22,15,20,11.30
2012,06,22,15,21,11.30
2012,06,22,15,22,11.30
2012,06,22,15,23,11.30
2012,06,22,15,24,11.40
2012,06,22,15,25,11.40
2012,06,22,15,26,11.40
2012,06,22,15,27,11.40
2012,06,22,15,28,11.40
2012,06,22,15,29,11.40
2012,06,22,15,30,11.40
2012,06,22,15,31,11.40
2012,06,22,15,32,11.50
2012,06,22,15,33,11.50
2012,06,22,15,34,11.50
2012,06,22,15,35,11.50
2012,06,22,15,36,11.50
2012,06,22,15,37,11.50
2012,06,22,15,38,11.50
2012,06,22,15,39,11.50
2012,06,22,15,40,11.50
2012,06,22,15,41,11.50
2012,06,22,15,42,11.50
2012,06,22,15,43,11.50
2012,06,22,15,44,11.50
2012,06,22,15,45,11.50
2012,06,22,15,46,11.50
2012,06,22,15,47,11.50
2012,06,22,15,48,11.50
2012,06,22,15,49,11.50
2012,06,22,15,50,11.50
2012,06,22,15,51,11.50
2012,06,22,15,52,11.50
2012,06,22,15,53,11.50
2012,06,22,15,54,11.50
2012,06,22,15,55,11.50
2012,06,22,15,56,11.50
2012,06,22,15,57,11.50
2012,06,22,15,58,11.50
2012,06,22,15,59,11.50
2012,06,22,16,00,11.50
2012,06,22,16,01,11.50
2012,06,22,16,02,11.50
2012,06,22,16,03,11.60
2012,06,22,16,04,11.60
2012,06,22,16,05,11.60
2012,06,22,16,06,11.60
2012,06,22,16,07,11.60
2012,06,22,16,08,11.60
2012,06,22,16,09,11.60
2012,06,22,16,10,11.60
2012,06,22,16,11,11.60
2012,06,22,16,12,11.60
2012,06,22,16,13,11.70
2012,06,22,16,14,11.70
2012,06,22,16,15,11.70
2012,06,22,16,16,11.70
2012,06,22,16,17,11.70
2012,06,22,16,18,11.70
2012,06,22,16,19,11.60
2012,06,22,16,20,11.60
2012,06,22,16,21,11.60
2012,06,22,16,22,11.60
2012,06,22,16,23,11.60
2012,06,22,16,24,11.60
2012,06,22,16,25,11.60
2012,06,22,16,26,11.60
2012,06,22,16,27,11.60
2012,06,22,16,28,11.60
2012,06,22,16,29,11.60
2012,06,22,16,30,11.60
2012,06,22,16,31,11.60
2012,06,22,16,32,11.60
2012,06,22,16,33,11.60
2012,06,22,16,34,11.60
2012,06,22,16,35,11.60
2012,06,22,16,36,11.60
2012,06,22,16,37,11.60
2012,06,22,16,38,11.60
2012,06,22,16,39,11.60
2012,06,22,16,40,11.60
2012,06,22,16,41,11.60
2012,06,22,16,42,11.60
2012,06,22,16,43,11.60
2012,06,22,16,44,11.50
2012,06,22,16,45,11.50
2012,06,22,16,46,11.50
2012,06,22,16,47,11.50
2012,06,22,16,48,11.50
2012,06,22,16,49,11.50
2012,06,22,16,50,11.50
2012,06,22,16,51,11.50
2012,06,22,16,52,11.50
2012,06,22,16,53,11.50
2012,06,22,16,54,11.40
2012,06,22,16,55,11.40
2012,06,22,16,56,11.40
2012,06,22,16,57,11.40
2012,06,22,16,58,11.40
2012,06,22,16,59,11.30
2012,06,22,17,00,11.30
2012,06,22,17,01,11.30
2012,06,22,17,02,11.30
2012,06,22,17,03,11.30
2012,06,22,17,04,11.30
2012,06,22,17,05,11.30
2012,06,22,17,06,11.30
2012,06,22,17,07,11.30
2012,06,22,17,08,11.30
2012,06,22,17,09,11.30
2012,06,22,17,10,11.30
2012,06,22,17,11,11.30
2012,06,22,17,12,11.30
2012,06,22,17,13,11.40
2012,06,22,17,14,11.40
2012,06,22,17,15,11.40
2012,06,22,17,16,11.40
2012,06,22,17,17,11.40
2012,06,22,17,18,11.40
2012,06,22,17,19,11.40